Weather in Ekibastuz

Kazakhstan     51°43′46″N   75°19′35″E
temp.,
°C
wind,
m/s
gust,
m/s
humid.,
%
clouds,
%
prec.,
mm/h
press.,
hPa
HPBL,
m
9 march, tue
tue900:00−14sw612870 0.0 1027214
03:00−15sw6118320 0.0 1027176
06:00−15sw7117726 0.0 1027188
09:00−13sw7127763 0.0 1027227
12:00−9sw697674 0.0 1026272
15:00−7sw687754 0.0 1024336
18:00−9ssw458338 0.0 102376
21:00−12sw457853 0.0 102354
10 march, wed
wed1000:00−13ssw457757 0.0 102144
03:00−12ssw347779 0.0 101940
06:00−12sse238276 0.0 101621
09:00−8se5887100 0.0 1012163
12:000sse81587100 0.0 1007595
15:00+2s716100100 0.2 1002630
18:00+2sw91698100 0.5 1002527
21:00−4w9168697 0.0 1006555
11 march, thu
thu1100:00−9wsw8168579 0.0 1011434
03:00−9wsw8168317 0.0 1012402
06:00−9sw1017829 0.0 1014426
09:00−9wsw1017800 0.0 1016461
12:00−7sw913770 0.0 1016516
15:00−3ssw9147381 0.0 1013975
18:00−2wsw12196790 0.1 10111259
21:00−8wsw71581100 0.0 1015727
12 march, fri
fri1200:00−13wsw8177950 0.0 1018632
03:00−15wsw816820 0.0 1019577
06:00−17wsw715840 0.0 1021495
09:00−17wsw914820 0.0 1022481
12:00−15wsw912810 0.0 1024746
15:00−14w9127974 0.0 1024798
18:00−16w6118550 0.0 1025642
21:00−19w6129118 0.0 1028210
13 march, sat
sat1300:00−21wsw58919 0.0 1030129
03:00−22wsw57920 0.0 1031107
06:00−23wsw46900 0.0 103388
09:00−20sw46880 0.0 1034150
12:00−15sw46830 0.0 1034287
15:00−12sw46820 0.0 1034379
18:00−14sw33860 0.0 103343
21:00−16sw34840 0.0 103331